Regional Weather Roundup
Issued by NWS Wilmington, NC

Home | Current Version | Previous Version | Text Only | Print | Product List | Glossary On
Versions: 1 2 3 4 5 6 7 8 9 10 11 12 13 14 15 16 17 18 19 20 21 22 23 24 25 26 27 28 29 30 31 32 33 34 35 36 37 38 39 40 41 42 43 44 45 46 47 48 49
000
ASUS42 KILM 050714
RWRILM
RWRILM
REGIONAL HOURLY WEATHER ROUNDUP
NATIONAL WEATHER SERVICE WILMINGTON NC
300 AM EDT SUN JUL 05 2020

NOTE: "FAIR" INDICATES FEW OR NO CLOUDS BELOW 12,000 FEET WITH NO
SIGNIFICANT WEATHER AND/OR OBSTRUCTIONS TO VISIBILITY.

...............WFO WILMINGTON COUNTY WARNING AREA...............

......COASTAL NC AND SC COUNTIES......

CITY           SKY/WX    TMP DP  RH WIND       PRES   REMARKS
WILMINGTON     CLEAR     77  72  84 W6        29.94F
N MYRTLE BEACH CLEAR     78  72  81 SW3       29.94F
MYRTLE BEACH   CLEAR     76  73  91 SW5       29.96S

......INLAND NC AND SC COUNTIES.......

CITY           SKY/WX    TMP DP  RH WIND       PRES   REMARKS
LUMBERTON      NOT AVBL
ELIZABETHTOWN  CLEAR     75  70  84 SW5       29.96S
WHITEVILLE     CLEAR     76  71  85 CALM      29.95S
FLORENCE       CLEAR     76  70  82 VRB7      29.96S
DARLINGTON     MOCLDY    76  72  87 SW6       29.96S
KINGSTREE      FAIR      70  68  94 CALM      29.96S FOG
HARTSVILLE     CLOUDY    72  70  94 CALM      29.96F
BENNETTSVILLE  MOCLDY    77  72  83 CALM      29.95S
CONWAY         FAIR      72  70  94 CALM      29.96R
GEORGETOWN     FAIR      70  68  94 CALM      29.97S
MARION         FAIR      73  70  88 CALM      29.96R

....................REST OF NORTH CAROLINA......................

.........EASTERN NC.........

CITY           SKY/WX    TMP DP  RH WIND       PRES   REMARKS
CAPE HATTERAS  CLEAR     77  72  84 CALM      29.95S
JACKSONVILLE   PTCLDY    76  71  85 CALM      29.94S
MOREHEAD CITY  CLEAR     79  76  90 E3        29.94S
KENANSVILLE    MOCLDY    75  73  94 CALM      29.94S
NEW BERN       CLEAR     78  75  90 SE3       29.95F
ELIZABETH CITY CLEAR     73  72  96 CALM      29.96S

.........CENTRAL NC.........

CITY           SKY/WX    TMP DP  RH WIND       PRES   REMARKS
RALEIGH DURHAM PTCLDY    72  69  90 CALM      29.96F
ROCKY MOUNT    PTCLDY    74  73  97 NE3       29.96S
ROANOKE RAPIDS NOT AVBL
FAYETTEVILLE   PTCLDY   N/A N/A N/A MISG      29.94S
HOFFMAN        PTCLDY    73  72  99 CALM      29.95F

.........WESTERN NC.........

CITY           SKY/WX    TMP DP  RH WIND       PRES   REMARKS
CHARLOTTE      PTCLDY    76  69  79 CALM      29.96F
GREENSBORO     PTCLDY    73  68  84 CALM      29.97S
HICKORY        NOT AVBL
BOONE          NOT AVBL
ASHEVILLE      NOT AVBL

.....................REST OF SOUTH CAROLINA.....................

.........EASTERN SC.........

CITY           SKY/WX    TMP DP  RH WIND       PRES   REMARKS
CHARLESTON     CLEAR     74  71  91 CALM      29.95F
BEAUFORT MCAS  CLEAR     76  74  93 CALM      29.95S
HILTON HEAD    MOCLDY    79  73  83 CALM      29.95S

.........CENTRAL SC.........

CITY           SKY/WX    TMP DP  RH WIND       PRES   REMARKS
COLUMBIA       CLEAR     76  67  73 CALM      29.94F
ORANGEBURG     CLEAR     72  71  97 CALM      29.96S
SUMTER SHAW    CLEAR     74  70  87 S3        29.96S

.........WESTERN SC.........

CITY           SKY/WX    TMP DP  RH WIND       PRES   REMARKS
GREENVILLE     NOT AVBL
ROCK HILL      PTCLDY    74  69  85 CALM      29.97S
ANDERSON       CLEAR     75  68  78 CALM      29.95F
CLEMSON        NOT AVBL
GREENWOOD      CLEAR     72  70  93 CALM      29.97F


...................COASTAL AND OFFSHORE REPORTS..................

................LOCAL PIERS AND NC RESERVE................


STATION/POSITION TIME  SKY/WX   TEMP    WIND        PRES    VSBY
                                AIR SEA DIR/SP/G
                 (UTC)          (F)     (DEG/KT/KT) (MB)    (MI)
JOHNY MRCER PIER 0630            80 80  250/  5/  8 1013.3F
NC RESRV MASNBRO NOT AVBL
OCEAN CREST PIER NOT AVBL
SPRINGMAID  PIER 0630            77                   N/A


................COASTAL AND OFFSHORE BUOYS................


STATION/POSITION TIME  SKY/WX   TEMP    WIND        PRES    VSBY
                                AIR SEA DIR/SP/G
                 (UTC)          (F)     (DEG/KT/KT) (MB)    (MI)
DIMNDSHOAL 41025 0700            80      20/  6/  8   N/A
CAPE LOOKOUT     0700            80     120/  5/  5 1013.9F
ONSLOW BAY 41036 NOT AVBL
ONSLOW BAY 41064 0608            83 83  290/  8/ 14 1014.0
ONSLOW BAY 41159 0626               82                N/A
WVE H/P(F/S)=  2/ 4

MASNBO INL 41110 0637               82                N/A
WVE H/P(F/S)=  2/ 8

WILM HARBR 41108 0630               82                N/A
WVE H/P(F/S)=  2/ 8

27SE WRITB 41037 0608            83 83  280/ 14/ 17 1014.3F
FRYING PAN 41013 0700            81     240/ 12/ 14 1013.5
SUNST NRSH 41024 0608            82 83  260/ 14/ 17 1014.0F
CAPRS NRSH 41029 0608            82 83  220/  6/ 12 1014.1F
EDISTO     41004 0700            82     190/  4/  6 1014.2


..........OFFSHORE BUOYS BEYOND 100 NM OFFSHORE...........
.....IN A TRIANGLE---HAT TO BERMUDA TO BAHAMAS TO HAT.....


STATION/POSITION TIME  SKY/WX   TEMP    WIND        PRES    VSBY
                                AIR SEA DIR/SP/G
                 (UTC)          (F)     (DEG/KT/KT) (MB)    (MI)
150E HAT   41001 0700            80 81   20/ 10/ 12 1011.9
W BERMUDA  41048 0700            78     240/ 10/ 14 1014.1
ATLANTIC S 41049 0700            81     170/ 12/ 16 1017.1
E BAHAMAS  41046 0700            83 85  140/  8/ 10 1016.7
NE BAHAMAS 41047 0700            81                 1015.6
120E CANVRL41010 0650            82 85  250/ 10/ 12 1013.8F
WVE H/P(F/S)=  2/ 9 SWL H/P/D(F/S/D)=  2/110/ 9


END



USA.gov is the U.S. government's official web portal to all federal, state and local government web resources and services.